Location: Unspecified
(50.7693°N, 0.0000°E)
Time: 12:55:02
(UTC+00:00)

SR - Pass Details

Date: 29 June 2019
Orbit: 580 x 876 km, 66.7° (Epoch: 20 July)

Event Time Altitude Azimuth Distance (km) Brightness Sun altitude
Rises 07:37:59 0° 321° (NW) 2,927 ? 32.6°
Reaches altitude 10° 07:41:06 10° 344° (NNW) 2,070 ? 33.1°
Maximum altitude 07:43:54 16° 21° (NNE) 1,777 ? 33.5°
Drops below altitude 10° 07:46:50 10° 58° (ENE) 2,176 ? 34.0°
Sets 07:50:14 0° 81° (E) 3,164 ? 34.5°
